TimeCDT,TemperatureF,Dew PointF,Humidity,Sea Level PressureIn,VisibilityMPH,Wind Direction,Wind SpeedMPH,Gust SpeedMPH,PrecipitationIn,Events,Conditions,WindDirDegrees,DateUTC
12:50 AM,53.6,50.0,88,30.05,10.0,NNW,19.6,26.5,N/A,,Overcast,330,2013-05-03 05:50:00
12:53 AM,53.1,50.0,89,30.04,10.0,NNW,17.3,26.5,N/A,,Overcast,340,2013-05-03 05:53:00
1:08 AM,51.8,50.0,94,30.04,10.0,NNW,16.1,24.2,0.00,Rain,Light Rain,340,2013-05-03 06:08:00
1:53 AM,50.0,46.9,89,30.03,10.0,NNW,21.9,28.8,0.00,,Overcast,340,2013-05-03 06:53:00
2:53 AM,48.2,44.6,87,30.02,10.0,North,12.7,23.0,N/A,,Overcast,350,2013-05-03 07:53:00
3:29 AM,46.4,44.6,93,30.02,3.0,NNW,15.0,-,0.03,Rain,Rain,340,2013-05-03 08:29:00
3:53 AM,46.9,45.0,93,30.01,10.0,NW,17.3,24.2,0.05,Rain,Light Rain,320,2013-05-03 08:53:00
4:07 AM,46.4,44.6,93,30.02,10.0,NW,13.8,24.2,0.00,Rain,Light Rain,320,2013-05-03 09:07:00
4:53 AM,45.0,44.1,97,30.02,4.0,NW,9.2,-,0.00,Rain,Light Rain,320,2013-05-03 09:53:00
5:39 AM,44.6,42.8,93,30.03,9.0,NNW,11.5,-,0.00,,Overcast,330,2013-05-03 10:39:00
5:53 AM,44.1,43.0,96,30.03,10.0,NW,12.7,-,0.00,Rain,Light Rain,320,2013-05-03 10:53:00
6:10 AM,44.6,42.8,93,30.03,6.0,NNW,13.8,-,0.00,Rain,Light Rain,330,2013-05-03 11:10:00
6:20 AM,44.6,41.0,87,30.03,10.0,NNW,12.7,23.0,0.00,,Overcast,330,2013-05-03 11:20:00
6:36 AM,44.6,42.8,93,30.03,5.0,NW,11.5,-,0.00,Rain,Light Rain,320,2013-05-03 11:36:00
6:53 AM,43.0,42.1,97,30.03,3.0,NW,12.7,17.3,0.01,Rain,Light Rain,310,2013-05-03 11:53:00
7:53 AM,42.1,39.9,92,30.04,6.0,NW,12.7,-,0.00,Rain,Light Rain,310,2013-05-03 12:53:00
8:04 AM,42.8,39.2,87,30.04,4.0,NW,10.4,-,0.00,,Overcast,310,2013-05-03 13:04:00
8:53 AM,42.1,39.0,89,30.03,9.0,NW,13.8,-,0.00,Rain,Light Rain,320,2013-05-03 13:53:00
9:02 AM,42.8,39.2,87,30.04,7.0,NW,12.7,-,0.00,Rain,Light Rain,310,2013-05-03 14:02:00
9:16 AM,42.8,39.2,87,30.04,5.0,WNW,10.4,-,0.00,Rain,Light Rain,300,2013-05-03 14:16:00
9:53 AM,42.1,39.9,92,30.04,10.0,WNW,11.5,-,0.00,,Overcast,300,2013-05-03 14:53:00
10:01 AM,42.8,39.2,87,30.05,10.0,WNW,10.4,-,N/A,,Overcast,300,2013-05-03 15:01:00
10:11 AM,42.8,39.2,87,30.04,10.0,WNW,13.8,20.7,0.00,Rain,Light Rain,300,2013-05-03 15:11:00
10:21 AM,42.8,39.2,87,30.05,9.0,WNW,15.0,21.9,0.01,Rain,Light Rain,300,2013-05-03 15:21:00
10:40 AM,42.8,39.2,87,30.05,10.0,WNW,15.0,20.7,0.01,Rain,Light Rain,300,2013-05-03 15:40:00
10:53 AM,43.0,39.0,86,30.05,10.0,WNW,12.7,20.7,0.01,,Overcast,300,2013-05-03 15:53:00
11:53 AM,42.1,39.0,89,30.06,10.0,West,10.4,-,0.00,,Overcast,280,2013-05-03 16:53:00
12:53 PM,43.0,37.9,82,30.04,10.0,WNW,11.5,-,N/A,,Overcast,290,2013-05-03 17:53:00
1:53 PM,45.0,37.0,74,30.04,10.0,WNW,13.8,24.2,N/A,,Overcast,290,2013-05-03 18:53:00
2:53 PM,46.0,37.0,71,30.04,10.0,WNW,16.1,24.2,N/A,,Overcast,290,2013-05-03 19:53:00
3:53 PM,46.9,37.9,71,30.02,10.0,WNW,11.5,20.7,N/A,,Overcast,290,2013-05-03 20:53:00
4:53 PM,51.1,39.0,63,30.01,10.0,NW,12.7,19.6,N/A,,Overcast,310,2013-05-03 21:53:00
5:53 PM,52.0,37.9,59,30.01,10.0,NW,17.3,21.9,N/A,,Scattered Clouds,320,2013-05-03 22:53:00
6:53 PM,52.0,36.0,54,30.00,10.0,NW,13.8,-,N/A,,Clear,320,2013-05-03 23:53:00
7:53 PM,48.0,37.9,68,30.02,10.0,NNW,4.6,-,N/A,,Clear,330,2013-05-04 00:53:00
8:53 PM,46.9,39.0,74,30.02,10.0,Calm,Calm,-,N/A,,Clear,0,2013-05-04 01:53:00
9:53 PM,43.0,39.0,86,30.01,10.0,Calm,Calm,-,N/A,,Clear,0,2013-05-04 02:53:00
10:53 PM,41.0,39.0,93,30.00,10.0,Calm,Calm,-,N/A,,Clear,0,2013-05-04 03:53:00
11:53 PM,42.1,39.9,92,30.00,-9999.0,Calm,Calm,-,N/A,,Clear,0,2013-05-04 04:53:00